Location: Bucium
(45.6000°N, 23.0000°E)
Time: 07:44:31
(UTC+00:00)

Daily predictions for brighter satellites

Satellite Brightness Start Highest point End
(mag) Time Altitude Azimuth Time Altitude Azimuth Time Altitude Azimuth
YAOGAN 1 3.1 16:37:40 10° SE 16:41:38 37° ENE 16:45:38 10° N
Cosmos 841 Rocket 4.3 16:38:38 10° N 16:43:17 32° ENE 16:47:53 10° ESE
SKYMED 2 3.6 16:39:18 10° NNE 16:43:41 85° ESE 16:48:02 10° SSW
In-Cosmos 22 4.2 16:40:05 10° NNW 16:45:24 83° W 16:50:41 10° S
SL-4 R/B 3.2 16:42:47 10° WNW 16:46:54 38° N 16:51:15 10° ENE
Cosmos 1954 Rocket 4.0 16:43:06 10° SSW 16:48:16 89° ESE 16:53:29 10° NNE
Cosmos 2279 Rocket 4.1 16:42:28 10° N 16:48:38 55° ENE 16:54:44 10° SSE
Meteor 1-21 4.4 16:45:12 10° NNW 16:50:58 82° W 16:56:37 10° S
Cosmos 1763 Rocket 3.4 16:47:21 10° NNW 16:52:27 88° ENE 16:57:33 10° SSE
Cosmos 1634 Rocket 4.0 16:46:52 10° N 16:53:04 89° ENE 16:59:16 10° S
NOSS 3-1 (A) 4.2 16:45:46 10° NW 16:53:17 89° SW 17:02:11 10° SE
OBJECT-B 2.4 16:54:33 11° ENE 16:54:49 11° ENE 16:55:32 10° NE
Aureole 1 4.3 16:52:53 10° S 16:55:47 49° ESE 16:58:56 10° NNE
Cosmos 2219 3.4 16:50:55 10° NNW 16:56:42 84° WSW 17:02:27 10° SSE
Cosmos 1869 Rocket 4.3 16:52:51 10° SSW 16:57:16 61° W 17:01:44 10° N
Cosmos 2221 Rocket 4.0 16:54:35 10° N 16:58:55 43° ENE 17:03:14 10° SSE
ISS -2.8 16:58:04 10° NW 17:01:13 36° NNE 17:03:48 14° E
NOSS 2-2 (D) 4.4 16:56:47 10° NW 17:01:51 84° SW 17:09:02 10° SSE
Cosmos 2360 4.3 16:57:56 10° SSW 17:03:40 88° WNW 17:09:26 10° NNE
SL-14 R/B 3.7 17:01:32 10° N 17:05:17 41° ENE 17:09:03 10° SSE
USA 215 4.1 16:59:46 10° NE 17:06:00 48° NNW 17:12:10 10° W
Cosmos 2263 Rocket 2.7 17:02:06 10° NNW 17:07:30 41° NE 17:12:35 11° SE
Cosmos 1741 Rocket 4.3 17:04:19 10° S 17:09:19 46° ESE 17:14:22 10° NNE
HJ-1C 3.1 17:06:53 10° SSE 17:09:58 64° ENE 17:13:04 10° N
Cosmos 1805 3.2 17:07:59 10° S 17:11:48 60° E 17:15:38 10° NNE
Cosmos 1378 Rocket 3.9 17:08:09 10° N 17:12:21 43° ENE 17:16:30 10° SSE
Cosmos 2082 3.7 17:10:36 10° NNW 17:16:23 78° ENE 17:22:06 10° SSE
USA 186 3.1 17:16:11 20° E 17:17:05 23° ENE 17:19:43 10° NNE
Cosmos 1733 Rocket 3.0 17:17:24 10° S 17:21:50 85° E 17:26:18 10° N
ARGOS Delta rocket 4.1 17:16:57 10° N 17:22:21 85° W 17:27:27 10° SSW
Cosmos 1766 3.6 17:20:33 10° SSE 17:24:11 39° E 17:27:52 10° NNE
BREEZE-M DEB (TANK) 4.1 17:20:41 10° SW 17:25:13 77° SSE 17:44:33 10° ENE
Okean-O 3.5 17:23:08 20° ESE 17:25:18 29° ENE 17:29:09 10° N
Cosmos 1697 Rocket 3.3 17:20:15 10° SW 17:25:47 60° WNW 17:31:22 10° NNE
Cosmos 1242 Rocket 2.8 17:24:26 10° SSW 17:27:59 67° WNW 17:31:33 10° N
CZ-2C R/B 3.4 17:27:56 10° SSW 17:28:44 11° S 17:29:32 10° S
CSL-04 Debris 4.5 17:24:33 11° SE 17:29:27 45° ENE 17:34:35 10° N
Cosmos 1726 2.0 17:26:54 10° S 17:30:28 60° E 17:34:05 10° NNE
Cosmos 2084 3.5 17:33:45 10° SW 17:37:33 67° NW 17:41:22 10° NE
CZ-3 Stage 3 4.4 17:32:23 10° SW 17:37:37 31° SSE 17:47:28 18° ESE
IRIDIUM 106 4.2 17:32:32 10° S 17:37:43 71° E 17:42:55 10° N
Feng Yun 1-1 Rocket 4.3 17:42:26 10° S 17:47:58 77° WSW 17:53:26 10° NNW
Cosmos 2285 Rocket 4.1 17:42:21 10° NNW 17:48:36 57° ENE 17:52:21 25° SE
Meteor 2-16 Rocket 4.4 17:43:41 10° S 17:49:39 58° E 17:55:40 10° NNE
Cosmos 2227 Rocket 4.3 17:45:11 10° NW 17:49:50 27° WSW 17:54:29 10° SSW
Timation 2 Rocket 3.9 17:43:50 10° NNW 17:50:22 85° ENE 17:55:08 18° SSE
Gbstr 26 Del rocket 4.4 17:43:25 10° SW 17:50:57 70° SE 17:57:33 17° ENE
Meteor 1-12 Rocket 4.3 17:45:11 10° S 17:51:05 67° E 17:57:05 10° NNE
CZ-4 R/B 2.2 17:48:08 10° S 17:52:11 54° W 17:56:19 10° NNW
Cosmos 2026 Rocket 4.3 17:48:39 11° SSE 17:53:58 41° E 17:59:35 10° NNE
CZ-4B R/B 4.4 17:48:57 10° S 17:53:59 42° W 17:59:09 10° NNW
MINOTAUR IV R/B 4.5 17:50:23 10° SSW 17:54:51 67° ESE 17:59:21 10° NNE
deb Chang Zheng 4 4.3 17:58:36 32° NE 17:58:36 32° NE 18:01:55 10° N
Okean O Rocket 2.9 17:55:11 10° S 17:59:17 41° W 18:03:25 10° NNW
Nadezhda 4 Rocket 4.0 17:54:05 10° S 18:00:26 90° E 18:06:48 10° N
CSL-04 Rocket 3.5 17:57:05 22° SSE 18:00:35 73° ENE 18:05:58 10° N
SJ-6B 2.5 18:01:54 52° SSE 18:02:44 80° ENE 18:06:30 10° N
Cosmos 1908 Rocket 3.4 18:00:44 10° S 18:05:03 85° E 18:09:25 10° N
Cosmos 1980 Rocket 2.8 18:00:00 10° SW 18:05:33 57° WNW 18:11:07 10° NNE
JB-3 4.3 18:02:41 10° NNE 18:06:34 59° E 18:06:34 59° E
Cosmos 968 Rocket 3.5 18:04:16 10° S 18:09:22 55° ESE 18:14:30 10° NNE
MetOp-A 4.4 18:10:47 30° NNE 18:10:47 30° NNE 18:13:14 10° N
Cosmos 1782 Rocket 4.2 18:13:45 40° NE 18:13:45 40° NE 18:16:47 10° NNE
Meteor 1-24 Rocket 3.5 18:11:54 10° N 18:17:12 65° ENE 18:18:19 51° SE
Cosmos 2278 3.8 18:12:58 10° SSW 18:18:41 79° WNW 18:24:24 10° NNE
Landsat 5 3.9 18:14:38 10° N 18:19:08 70° WNW 18:23:34 10° SSW
Landsat 7 3.6 18:19:20 61° SE 18:20:04 75° ENE 18:24:48 10° N
Ariane Rocket 4.2 18:22:21 26° NE 18:22:21 26° NE 18:25:39 10° N
SL-16 R/B 2.2 18:17:05 10° S 18:22:37 56° ESE 18:28:09 10° NNE
Cosmos 2292 Rocket 4.1 18:17:28 10° S 18:23:31 78° W 18:28:03 10° N
Cosmos 1437 Rocket 3.2 18:24:58 52° N 18:24:58 52° N 18:27:55 10° N
OBJECT-B 2.9 18:25:25 21° WNW 18:25:25 21° WNW 18:26:51 10° NW
Meteor 1-22 Rocket 4.0 18:20:17 10° S 18:25:37 79° E 18:31:10 10° NNE
SL-4 R/B 2.3 18:22:25 10° WNW 18:26:57 65° NNE 18:27:05 65° NNE
Cosmos 1570 Rocket 3.9 18:22:07 10° NNW 18:27:26 83° ENE 18:28:15 64° SE
MOS 1 4.4 18:27:45 52° E 18:28:02 53° ENE 18:33:31 10° N
H-2A R/B 3.4 18:32:30 37° N 18:32:30 37° N 18:35:00 10° N
Cosmos 1844 Rocket 3.2 18:29:11 10° NNW 18:34:20 43° NE 18:34:20 43° NE
Cosmos 1092 Rocket 4.0 18:30:00 10° S 18:36:20 85° W 18:42:39 10° N
ISS -1.9 18:34:46 10° WNW 18:36:41 30° W 18:36:41 30° W
Cosmos 1025 Rocket 3.7 18:35:01 10° N 18:38:03 45° N 18:38:03 45° N
Resurs 01 Rocket 2.5 18:42:04 40° N 18:42:04 40° N 18:45:01 10° N
Terra 4.3 18:44:56 11° NNE 18:44:56 11° NNE 18:45:12 10° NNE
Meteor 2-5 Rocket 3.9 18:38:57 10° NNW 18:44:27 66° W 18:46:13 42° SSW
Cosmos 1975 Rocket 3.6 18:40:10 10° N 18:43:37 53° NNW 18:43:37 53° NNW
USA 186 4.3 18:49:20 20° W 18:49:20 20° W 18:51:52 10° NW
Cosmos 2208 Rocket 4.0 18:44:01 10° NNW 18:49:25 83° WSW 18:49:29 82° SW
Cosmos 2263 Rocket 3.6 18:46:15 10° NW 18:51:20 34° WSW 18:54:19 21° SSW
Cosmos 1844 4.3 18:47:22 10° NNW 18:51:49 44° NNE 18:51:49 44° NNE
USA 81 4.2 18:47:40 10° N 18:52:55 68° W 18:53:33 62° SW
Okean-O 4.3 19:00:42 27° WSW 19:01:43 30° W 19:05:37 10° NW
IRS-1A Rocket 4.5 19:14:08 68° NW 19:14:08 68° NW 19:19:12 10° NNW
USA 281 3.8 19:20:06 44° NNE 19:20:06 44° NNE 19:25:18 10° NNW
SPOT 1/Viking Rocket 4.4 19:22:41 47° NW 19:22:41 47° NW 19:26:40 10° NNW
Cosmos 2322 Rocket 4.2 19:43:57 19° NNE 19:43:57 19° NNE 19:45:33 10° NNE
ATLAS 2AS CENTAUR R/B 4.4 19:59:27 10° NNW 20:05:07 24° NNE 20:05:21 24° NNE
SL-16 R/B 4.0 20:02:15 10° WSW 20:07:03 27° NW 20:11:52 10° N
Cosmos 2278 Rocket 4.4 20:15:38 10° NNW 20:17:26 20° N 20:17:26 20° N
USA 215 4.5 20:31:46 36° NNW 20:31:46 36° NNW 20:36:14 10° NW
